Regional Weather Roundup
Issued by NWS Charleston, SC

Current Version | Previous Version | Graphics & Text | Print | Product List | Glossary On
Versions: 1 2 3 4 5 6 7 8 9 10 11 12 13 14 15 16 17 18 19 20 21 22 23 24 25 26 27 28 29 30 31 32 33 34 35 36 37 38 39 40 41 42 43 44 45 46 47 48 49 50
000
ASUS42 KCHS 220710
RWRCHS

REGIONAL WEATHER ROUNDUP
NATIONAL WEATHER SERVICE CHARLESTON SC
200 AM EST WED FEB 22 2017

NOTE: "FAIR" INDICATES FEW OR NO CLOUDS BELOW 12,000 FEET WITH NO
SIGNIFICANT WEATHER AND/OR OBSTRUCTIONS TO VISIBILITY.

NOT ALL STATIONS ARE QUALITY CONTROLLED. USE DATA WITH CAUTION...
ESPECIALLY DEWPOINT OBSERVATIONS.

SCZ027-030-031-034>040-042>050-220800-
...SOUTHEAST SOUTH CAROLINA...

CITY           SKY/WX    TMP DP  RH WIND       PRES   REMARKS
N CHARLESTON   CLOUDY    59  56  89 E7        29.99F
WATERFRONT PRK   N/A     61  59  93 E7        29.99F
MOUNT PLEASANT NOT AVBL
JOHNS ISLAND   NOT AVBL
PINOPOLIS        N/A     61  57  88 E5        29.91F
MONCKS CORNER  NOT AVBL
SUMMERVILLE    NOT AVBL
BEAUFORT MCAS  MOCLDY    64  60  87 E7        29.97F
BEAUFORT ARPT  NOT AVBL
HILTON HEAD IS NOT AVBL
WALTERBORO     NOT AVBL
ALLENDALE      NOT AVBL

...SOUTHERN MIDLANDS AND PEE DEE...

CITY           SKY/WX    TMP DP  RH WIND       PRES   REMARKS
GEORGETOWN     NOT AVBL
KINGSTREE      NOT AVBL
ORANGEBURG     PTCLDY    57  55  93 E5        29.99F
BARNWELL       NOT AVBL
AIKEN          NOT AVBL
MANNING        FAIR      55  46  71 MISG      29.99F
COLUMBIA       CLOUDY    60  54  80 E8        29.98F
SUMTER         CLOUDY    54  51  91 NE3       29.98F
FLORENCE       MOCLDY    54  52  93 E9        30.02F
MYRTLE BEACH   NOT AVBL
N MYRTLE BEACH PTCLDY    62  55  77 E8        30.03F

$$

GAZ063-065-086>088-099>101-113>116-118-119-134>141-150-220800-
...SOUTHEAST GEORGIA...

CITY           SKY/WX    TMP DP  RH WIND       PRES   REMARKS
SAVANNAH ARPT  LGT RAIN  64  60  87 E5        29.95F
HUNTER AAF     DRIZZLE   65  65 100 CALM      29.92F
FORT STEWART   CLOUDY    62  60  95 CALM      29.90F
STATESBORO     MOCLDY    63  63 100 E5        29.94F
SYLVANIA       CLOUDY   N/A N/A N/A CALM      29.96F
CLAXTON        FAIR     N/A N/A N/A CALM      29.93F HAZE

...CSRA...CENTRAL AND FAR SOUTHEAST GEORGIA...

CITY           SKY/WX    TMP DP  RH WIND       PRES   REMARKS
THOMSON        CLOUDY    63  63 100 E6        30.00F
AUGUSTA-BUSH   RAIN      63  61  93 CALM      29.95F FOG
AUGUSTA-DANIEL RAIN      61  58  90 E3        29.97F FOG
SWAINSBORO     CLOUDY    64  63  94 E7        29.94F
VIDALIA        CLOUDY    64  64 100 SE3       29.92F
EASTMAN        FAIR      64  62  96 E5        29.93F
HAZLEHURST     PTSUNNY   65  64  96 SE5       29.90F
ALMA           CLOUDY    65  62  90 SE8       29.90F
WAYCROSS       MOCLDY    68  67  98 SE7       29.90F
JESUP          FAIR      64  61  88 CALM      29.92F
BAXLEY         MOCLDY    64  64 100 SE3       29.91F
BRUNSWICK      CLOUDY    68  63  83 E6        29.92F
SAINT SIMONS   CLOUDY    66  61  84 SE7       29.91F

$$

SCZ027-028-034-036>038-045-046-048>050-GAZ119-141-220800-
...LAKE AND SUPPLEMENTAL COASTAL OBSERVATIONS...

STATION/POSITION TIME  TEMP    WIND        PRES    WAVE   SWELL
                       AIR SEA DIR/SP/G            HT/PER HT/PER/DIR
                 (UTC) (F)     (DEG/KT/KT) (MB)    (FT/S) (FT/S/D)
WINYAH BAY       0545   58      40/  5     1017.0
LAKE MURRAY      0620   59      CALM  /  3 1015.6
ACE BASIN NERRS  NOT AVBL
FORT PULASKI     0642          120/  8/ 11 1014.3F
SAPELO ISLAND    0600   64     130/  6     1014.0

$$

ANZ835-935-AMZ111-154-330-350-352-354-370-450-454-472-220800-
...C-MAN AND BUOY OBSERVATIONS...

STATION/POSITION TIME  TEMP    WIND        PRES    WAVE   SWELL
                       AIR SEA DIR/SP/G            HT/PER HT/PER/DIR
                 (UTC) (F)     (DEG/KT/KT) (MB)    (FT/S) (FT/S/D)
BUOY 41004       0550   69 69  120/ 14/ 17 1015.6    4/ 5   2/ 70/ 9
BUOY 41008       0550   65 62  140/  8/  8 1013.7    4/ 6   3/100/ 6
FOLLY BEACH CMAN 0600   61      50/  6/  7 1016.5F
CAPERS NEARSHORE 0608   60 59   60/  6/ 10 1015.9
FRIPP NEARSHORE  0608   63 60  110/ 10/ 12 1014.6F


STATION/POSITION TIME  TEMP    WIND        PRES    WAVE   SWELL
                       AIR SEA DIR/SP/G            HT/PER HT/PER/DIR
                 (UTC) (F)     (DEG/KT/KT) (MB)    (FT/S) (FT/S/D)
5E ST. MARYS GA  0630      64                N/A     4/ 6
FRYING PAN BUOY  0650   68 69  130/ 12/ 16 1016.8F   4/ 5   2/ 70/ 7
BUOY 41025       0650   63 74  150/  8/ 10 1019.2F   4/10   3/ 40/10
CAPE LOOKOUT NC  0600   60     110/  8/  8 1018.5F
BUOY 41002       0650   64 71   90/ 10/ 12 1018.0F   5/ 8   5/ 20/ 8
BUOY 41010       NOT AVBL
ST AUGUSTINE FL  0700   68 68  130/ 10/ 11 1012.8F


$$



USA.gov is the U.S. government's official web portal to all federal, state and local government web resources and services.